Погода в Черемушском

Россия / Архангельская область     61°16′15″N   47°15′49″E
темп.,
°C
ветер,
м/с
пор.,
м/с
влажн.,
%
обл.,
%
осадки,
мм/ч
давл.,
гПа
погр.,
м
15 апреля, чт
чт1500:00+11з51087100 0.4 1016723
03:00+4с4889100 0.8 1020468
06:00+4ссз2791100 2.4 1022521
09:00+6с356692 2.4 10231183
12:00+7ссз454992 0.0 10251425
15:00+7с46425 0.0 10261513
18:00+6с36550 0.0 1027384
21:00+2с27760 0.0 1029146
16 апреля, пт
пт1600:000с22790 0.0 103138
03:00−1св11791 0.0 103211
06:00+1ссз01715 0.0 103369
09:00+5зсз22495 0.0 1033719
12:00+8сз34415 0.0 10321138
15:00+8сз34425 0.0 10311367
18:00+7сз24585 0.0 1031147
21:00+3сз22775 0.0 103220
17 апреля, сб
сб1700:00+1сз11875 0.0 103210
03:000сз22925 0.0 103316
06:00+1сз24875 0.0 1033138
09:00+6сз35645 0.0 1033825
12:00+8сз35465 0.0 10321163
15:00+9сз464489 0.0 10301400
18:00+8сз48555 0.0 1029799
21:00+4зсз311745 0.0 1029352
18 апреля, вс
вс1800:00+3сз310820 0.0 1029347
03:00+1ссз39875 0.0 1030320
06:00+2ссв3889100 0.0 1031601
09:00+3св46440 0.1 10331080
12:00+5св45325 0.0 10341446
15:00+6св34315 0.0 10341626
18:00+5всв35370 0.0 1035761
21:000всв26550 0.0 1036140
19 апреля, пн
пн1900:00−1вюв26592 0.0 1037141
03:00−1юв24580 0.0 103887
06:000юв13515 0.0 1038163
09:00+5ююв11330 0.0 10371081
12:00+8ююв11285 0.0 10361499
15:00+8ю11270 0.0 10351593
18:00+6ююв11370 0.0 103411
21:00+2ю11510 0.0 103511